Fort Benning, AL

3:54 AM CDT on June 29, 2017 (GMT -0500)
Lawson Army Air Field

Weather History for KLSF - April, 2013

Change the Weather History Date:

Monday, April 22, 2013

  Actual Average Record
Temperature  
Mean Temperature 62 °F -  
Max Temperature 75 °F 74 °F 89 °F (2011)
Min Temperature 48 °F 50 °F 42 °F (2007)
Degree Days  
Heating Degree Days 4    
Growing Degree Days 12 (Base 50)    
Moisture  
Dew Point 49 °F    
Average Humidity 67    
Maximum Humidity 94    
Minimum Humidity 41    
Precipitation  
Precipitation 0.00 in - - ()
Sea Level Pressure  
Sea Level Pressure 30.18 in    
Wind  
Wind Speed 7 mph (ENE)    
Max Wind Speed 15 mph    
Max Gust Speed 24 mph    
Visibility 10 miles    
Events Rain    
Averages and records for this station are not official NWS values.
T = Trace of Precipitation, MM = Missing Value Source: NWS Daily Summary

Daily Weather History Graph

Daily Weather History Graph

Search for Another Location

Airport or City:

Trip Planner

Search our weather history database for the weather conditions in past years. The results will help you decide how hot, cold, wet, or windy it might be!

Date:

Astronomy

Apr. 22, 2013 Rise Set
Actual Time 7:02 AM EDT 8:14 PM EDT
Civil Twilight 6:36 AM EDT 8:40 PM EDT
Nautical Twilight 6:06 AM EDT 9:10 PM EDT
Astronomical Twilight 5:35 AM EDT 9:42 PM EDT
Moon 5:12 PM EDT (4/22) 4:45 AM EDT (4/22)
Length of Visible Light 14h 03m
Length of Day
13h 12m
Waxing Gibbous, 87% of the Moon is Illuminated
Apr 22
Waxing Gibbous
Apr 25
Full
May 2
Last Quarter
May 9
New
May 18
First Quarter

Hourly Weather History & Observations

Time (EDT) Temp. Dew Point Humidity Pressure Visibility Wind Dir Wind Speed Gust Speed Precip Events Conditions
12:58 AM 49.6 °F 43.7 °F 80% 30.22 in 10.0 mi North 5.8 mph - N/A   Clear
1:58 AM 49.3 °F 42.6 °F 78% 30.21 in 10.0 mi North 6.9 mph - N/A   Clear
2:58 AM 48.6 °F 43.7 °F 83% 30.19 in 10.0 mi NNE 8.1 mph - N/A   Scattered Clouds
3:18 AM 50.0 °F 44.6 °F 82% 30.18 in 10.0 mi NNE 4.6 mph - N/A   Mostly Cloudy
3:58 AM 53.2 °F 44.2 °F 72% 30.18 in 10.0 mi NNE 6.9 mph - N/A   Scattered Clouds
4:58 AM 51.1 °F 44.2 °F 77% 30.19 in 10.0 mi NNE 8.1 mph - N/A   Mostly Cloudy
5:58 AM 52.9 °F 45.1 °F 75% 30.20 in 10.0 mi NE 11.5 mph - N/A   Scattered Clouds
6:58 AM 52.3 °F 44.6 °F 75% 30.22 in 10.0 mi NE 8.1 mph - N/A   Partly Cloudy
7:55 AM 53.6 °F 44.6 °F 72% 30.22 in 10.0 mi NE 11.5 mph - N/A   Mostly Cloudy
7:58 AM 54.0 °F 44.6 °F 71% 30.23 in 10.0 mi NE 8.1 mph - N/A   Mostly Cloudy
8:58 AM 56.8 °F 44.8 °F 64% 30.24 in 10.0 mi ENE 11.5 mph - N/A   Overcast
9:03 AM 57.2 °F 44.6 °F 63% 30.23 in 10.0 mi NE 9.2 mph 18.4 mph N/A   Mostly Cloudy
9:18 AM 57.2 °F 44.6 °F 63% 30.23 in 10.0 mi ENE 9.2 mph 17.3 mph N/A   Mostly Cloudy
9:58 AM 59.2 °F 45.0 °F 59% 30.25 in 10.0 mi East 11.5 mph - N/A   Overcast
10:38 AM 60.8 °F 44.6 °F 55% 30.24 in 10.0 mi East 8.1 mph - N/A   Mostly Cloudy
10:58 AM 63.3 °F 45.3 °F 52% 30.25 in 10.0 mi ENE 15.0 mph 24.2 mph N/A   Mostly Cloudy
11:58 AM 66.7 °F 46.4 °F 48% 30.24 in 10.0 mi ENE 15.0 mph 18.4 mph N/A   Clear
12:58 PM 69.1 °F 48.2 °F 47% 30.21 in 10.0 mi ESE 9.2 mph 19.6 mph N/A   Clear
1:58 PM 71.4 °F 49.3 °F 45% 30.19 in 10.0 mi NE 8.1 mph 19.6 mph N/A   Partly Cloudy
2:58 PM 72.3 °F 49.8 °F 45% 30.17 in 10.0 mi East 10.4 mph - N/A   Scattered Clouds
3:58 PM 73.8 °F 49.3 °F 42% 30.14 in 10.0 mi NNE 8.1 mph - N/A   Partly Cloudy
4:27 PM 75.2 °F 50.0 °F 41% 30.12 in 10.0 mi ENE 15.0 mph 21.9 mph N/A   Mostly Cloudy
4:58 PM 73.6 °F 50.4 °F 44% 30.12 in 10.0 mi ENE 8.1 mph - N/A   Mostly Cloudy
5:58 PM 75.2 °F 50.7 °F 42% 30.11 in 10.0 mi East 11.5 mph - N/A   Partly Cloudy
6:58 PM 73.4 °F 50.4 °F 44% 30.11 in 10.0 mi East 6.9 mph - N/A   Clear
7:58 PM 71.2 °F 49.6 °F 46% 30.12 in 10.0 mi East 8.1 mph - N/A   Mostly Cloudy
8:58 PM 62.6 °F 52.2 °F 69% 30.14 in 10.0 mi SE 2.3 mph - N/A   Mostly Cloudy
9:38 PM 60.8 °F 55.4 °F 82% 30.14 in 10.0 mi South 3.5 mph - N/A   Overcast
9:58 PM 62.2 °F 52.9 °F 71% 30.15 in 10.0 mi SSE 2.3 mph - N/A   Overcast
10:43 PM 60.8 °F 53.6 °F 77% 30.15 in 10.0 mi SSE 2.3 mph - N/A   Overcast
10:48 PM 60.8 °F 53.6 °F 77% 30.15 in 10.0 mi South 2.3 mph - N/A   Overcast
10:53 PM 59.0 °F 53.6 °F 82% 30.15 in 10.0 mi SSW 2.3 mph - N/A   Overcast
10:58 PM 58.8 °F 53.2 °F 82% 30.16 in 10.0 mi SSW 1.2 mph - N/A   Overcast
11:18 PM 59.0 °F 53.6 °F 82% 30.15 in 10.0 mi Calm Calm - N/A Rain Light Rain
11:21 PM 59.0 °F 53.6 °F 82% 30.15 in 10.0 mi Calm Calm - N/A   Scattered Clouds
11:36 PM 57.2 °F 53.6 °F 88% 30.15 in 10.0 mi Calm Calm - N/A   Mostly Cloudy
11:46 PM 55.4 °F 53.6 °F 94% 30.15 in 10.0 mi Calm Calm - N/A   Overcast
11:58 PM 56.8 °F 52.3 °F 85% 30.16 in 10.0 mi Variable 1.2 mph - 0.00 in   Overcast